Location: Fort Wayne
(41.1310°N, 85.1290°W)
Time: 03:40:48
(UTC-05:00)

Gbstr 26 Del rocket - Visible Passes

Search period start: 01 February 2015 00:00
Search period end: 11 February 2015 00:00
Orbit: 493 x 1274 km, 51.8° (Epoch: 30 January)

Date Brightness Start Highest point End Pass type
(mag) Time Alt. Az. Time Alt. Az. Time Alt. Az.
01 Feb 5.8 04:44:00 15° NE 04:44:00 15° NE 04:45:01 10° NE visible
01 Feb 4.7 06:26:39 18° NW 06:28:39 24° N 06:32:57 10° NE visible
02 Feb 5.8 04:41:05 14° NE 04:41:05 14° NE 04:41:56 10° NE visible
02 Feb 4.8 06:23:43 18° NNW 06:25:48 23° N 06:30:05 10° NE visible
03 Feb 5.9 04:38:08 13° NE 04:38:08 13° NE 04:38:52 10° NE visible
03 Feb 4.8 06:20:47 17° NNW 06:22:58 23° N 06:27:16 10° ENE visible
04 Feb 6.0 04:35:11 13° NE 04:35:11 13° NE 04:35:49 10° NE visible
04 Feb 4.9 06:17:50 17° NNW 06:20:06 24° N 06:24:29 10° ENE visible
05 Feb 6.0 04:32:13 12° NE 04:32:13 12° NE 04:32:47 10° NE visible
05 Feb 4.9 06:14:52 17° NNW 06:17:15 25° NNE 06:21:43 10° ENE visible
06 Feb 6.0 04:29:16 12° NE 04:29:16 12° NE 04:29:47 10° NE visible
06 Feb 4.8 06:11:54 18° NNW 06:14:21 27° NNE 06:18:59 10° ENE visible
07 Feb 6.1 04:26:19 12° NE 04:26:19 12° NE 04:26:50 10° NE visible
07 Feb 4.7 06:08:58 19° NNW 06:11:27 30° NNE 06:16:14 10° E visible
08 Feb 6.1 04:23:23 12° NE 04:23:23 12° NE 04:23:56 10° NE visible
08 Feb 4.6 06:06:01 20° NNW 06:08:31 33° NNE 06:13:29 10° E visible
09 Feb 6.1 04:20:28 12° NE 04:20:28 12° NE 04:21:05 10° NE visible
09 Feb 4.4 06:03:07 22° NNW 06:05:35 38° NNE 06:10:42 10° E visible
10 Feb 6.1 04:17:35 13° NE 04:17:35 13° NE 04:18:16 10° ENE visible
10 Feb 4.2 06:00:14 24° NNW 06:02:36 44° NNE 06:07:53 10° E visible
